Location: Mahannah Oil Field
(37.4664°N, 96.6003°W)
Time: 01:56:53
(UTC+00:00)

Tiros 1 despin weight - Pass Details

Date: 28 January 2021
Orbit: 593 x 642 km, 48.2° (Epoch: 25 February)

Event Time Altitude Azimuth Distance (km) Brightness Sun altitude
Rises 19:21:33 0° 250° (WSW) 2,910 ? 33.7°
Reaches altitude 10° 19:23:56 10° 255° (WSW) 1,997 ? 33.6°
Maximum altitude 19:28:24 51° 332° (NNW) 782 ? 33.4°
Drops below altitude 10° 19:32:50 10° 49° (NE) 1,973 ? 33.2°
Sets 19:35:11 0° 54° (NE) 2,871 ? 33.0°
